Cairns, Queensland

9:29 AM AEST on September 28, 2016 (GMT +1000)
Cairns International

Weather History for YBCS - March, 2014

Change the Weather History Date:

Tuesday, March 18, 2014

  Actual Average Record
Temperature  
Mean Temperature 80 °F -  
Max Temperature 87 °F 84 °F 90 °F (2015)
Min Temperature 72 °F 72 °F 66 °F (2013)
Cooling Degree Days 14    
Growing Degree Days 30 (Base 50)    
Moisture  
Dew Point 69 °F    
Average Humidity 69    
Maximum Humidity 88    
Minimum Humidity 43    
Precipitation  
Precipitation 0.00 in - - ()
Sea Level Pressure  
Sea Level Pressure 29.95 in    
Wind  
Wind Speed 11 mph ()    
Max Wind Speed 22 mph    
Max Gust Speed -    
Visibility 7.0 miles    
Events      
Averages and records for this station are not official NWS values.
T = Trace of Precipitation, MM = Missing Value Source: Averaged Metar Reports

Daily Weather History Graph

Daily Weather History Graph

Search for Another Location

Airport or City:

Trip Planner

Search our weather history database for the weather conditions in past years. The results will help you decide how hot, cold, wet, or windy it might be!

Date:

Astronomy

Mar. 18, 2014 Rise Set
Actual Time 6:20 AM AEST 6:29 PM AEST
Civil Twilight 5:58 AM AEST 6:51 PM AEST
Nautical Twilight 5:33 AM AEST 7:16 PM AEST
Astronomical Twilight 5:08 AM AEST 7:41 PM AEST
Moon 7:26 PM AEST (3/18) 7:19 AM AEST (3/18)
Length of Visible Light 12h 52m
Length of Day
12h 09m
Full, 98% of the Moon is Illuminated
Mar 18
Full
Mar 24
Last Quarter
Mar 31
New
Apr 7
First Quarter
Apr 15
Full

Hourly Weather History & Observations

Time (AEST) Temp. Heat Index Dew Point Humidity Pressure Visibility Wind Dir Wind Speed Gust Speed Precip Events Conditions
12:00 AM 76 °F - 70 °F 77% 29.97 in - South 5.8 mph - -  
12:00 AM 77.0 °F - 69.8 °F 78% 29.98 in 6.2 mi South 5.8 mph - N/A   Partly Cloudy
12:30 AM 77.0 °F - 69.8 °F 78% 29.95 in 6.2 mi South 6.9 mph - N/A   Partly Cloudy
1:00 AM 76 °F - 70 °F 77% 29.96 in - WSW 4.6 mph - -  
1:00 AM 77.0 °F - 69.8 °F 78% 29.95 in 6.2 mi WSW 4.6 mph - N/A   Partly Cloudy
1:30 AM 77.0 °F - 69.8 °F 78% 29.95 in 6.2 mi South 6.9 mph - N/A   Partly Cloudy
2:00 AM 77.0 °F - 69.8 °F 78% 29.95 in 6.2 mi South 6.9 mph - N/A   Partly Cloudy
2:30 AM 73.4 °F - 69.8 °F 88% 29.92 in 6.2 mi SE 9.2 mph - N/A   Partly Cloudy
3:00 AM 74 °F - 70 °F 83% 29.94 in - SE 8.1 mph - -  
3:00 AM 73.4 °F - 69.8 °F 88% 29.92 in 6.2 mi SE 8.1 mph - N/A   Partly Cloudy
3:30 AM 73.4 °F - 69.8 °F 88% 29.92 in 6.2 mi SE 10.4 mph - N/A   Partly Cloudy
4:00 AM 73 °F - 69 °F 84% 29.94 in - SE 9.2 mph - -  
4:00 AM 73.4 °F - 69.8 °F 88% 29.92 in 6.2 mi SE 9.2 mph - N/A   Partly Cloudy
4:30 AM 73.4 °F - 69.8 °F 88% 29.95 in 6.2 mi SE 8.1 mph - N/A   Partly Cloudy
5:00 AM 73.4 °F - 68.0 °F 83% 29.95 in 6.2 mi SE 10.4 mph - N/A   Partly Cloudy
5:30 AM 71.6 °F - 68.0 °F 88% 29.95 in 6.2 mi SE 8.1 mph - N/A   Partly Cloudy
6:00 AM 73 °F - 68 °F 81% 29.96 in 19 mi SE 11.5 mph - -   Partly Cloudy
6:00 AM 73.4 °F - 68.0 °F 83% 29.95 in 6.2 mi SE 11.5 mph - N/A   Partly Cloudy
6:30 AM 73.4 °F - 68.0 °F 83% 29.95 in 6.2 mi SE 8.1 mph - N/A   Partly Cloudy
7:00 AM 74 °F - 69 °F 78% 29.98 in - SE 12.7 mph - -  
7:00 AM 73.4 °F - 68.0 °F 83% 29.95 in 6.2 mi SE 12.7 mph - N/A   Partly Cloudy
7:30 AM 77.0 °F - 69.8 °F 78% 29.98 in 6.2 mi SE 10.4 mph - N/A   Partly Cloudy
8:00 AM 78.8 °F - 69.8 °F 74% 29.98 in 6.2 mi South 9.2 mph - N/A   Partly Cloudy
8:30 AM 80.6 °F 83.9 °F 69.8 °F 70% 29.98 in 6.2 mi SSE 11.5 mph - N/A   Partly Cloudy
9:00 AM 82 °F - 71 °F 60% 30.00 in 19 mi South 11.5 mph - -   Partly Cloudy
9:00 AM 82.4 °F 86.3 °F 69.8 °F 66% 29.98 in 6.2 mi South 11.5 mph - N/A   Partly Cloudy
9:30 AM 82.4 °F 87.2 °F 71.6 °F 70% 29.98 in 6.2 mi South 10.4 mph - N/A   Partly Cloudy
10:00 AM 83 °F - 70 °F 57% 30.01 in - South 13.8 mph - -  
10:00 AM 82.4 °F 86.3 °F 69.8 °F 66% 29.98 in 6.2 mi South 13.8 mph - N/A   Partly Cloudy
10:30 AM 86.0 °F 89.4 °F 68.0 °F 55% 29.98 in 6.2 mi SE 17.3 mph - N/A   Partly Cloudy
11:00 AM 86.0 °F 88.2 °F 66.2 °F 51% 29.98 in 6.2 mi SSE 17.3 mph - N/A   Partly Cloudy
11:30 AM 86.0 °F 89.4 °F 68.0 °F 55% 29.98 in 6.2 mi SE 17.3 mph - N/A   Partly Cloudy
12:00 PM 87 °F - 67 °F 43% 29.97 in 19 mi SE 17.3 mph - -   Partly Cloudy
12:00 PM 87.8 °F 91.4 °F 68.0 °F 52% 29.95 in 6.2 mi SE 17.3 mph - N/A   Partly Cloudy
12:30 PM 87.8 °F 91.4 °F 68.0 °F 52% 29.95 in 6.2 mi ESE 17.3 mph - N/A   Partly Cloudy
1:00 PM 87.8 °F 90.4 °F 66.2 °F 49% 29.92 in 6.2 mi ESE 19.6 mph - N/A   Partly Cloudy
1:30 PM 87.8 °F 91.4 °F 68.0 °F 52% 29.92 in 6.2 mi SE 18.4 mph - N/A   Partly Cloudy
2:00 PM 87.8 °F 91.4 °F 68.0 °F 52% 29.92 in 6.2 mi SE 21.9 mph - N/A   Partly Cloudy
2:30 PM 87.8 °F 91.4 °F 68.0 °F 52% 29.89 in 6.2 mi SE 20.7 mph - N/A   Partly Cloudy
3:00 PM 87.8 °F 91.4 °F 68.0 °F 52% 29.89 in 6.2 mi SE 20.7 mph - N/A   Partly Cloudy
3:30 PM 86.0 °F 90.4 °F 69.8 °F 58% 29.89 in 6.2 mi ESE 21.9 mph - N/A   Partly Cloudy
4:00 PM 86 °F - 67 °F 43% 29.91 in - SE 21.9 mph - -  
4:00 PM 86.0 °F 88.2 °F 66.2 °F 51% 29.89 in 6.2 mi SE 21.9 mph - N/A   Partly Cloudy
4:30 PM 84.2 °F 87.3 °F 68.0 °F 58% 29.89 in 6.2 mi SE 21.9 mph - N/A   Partly Cloudy
5:00 PM 84.2 °F 87.3 °F 68.0 °F 58% 29.89 in 6.2 mi SE 21.9 mph - N/A   Partly Cloudy
5:30 PM 82.4 °F 86.3 °F 69.8 °F 66% 29.92 in 6.2 mi SE 20.7 mph - N/A   Partly Cloudy
6:00 PM 81 °F - 69 °F 58% 29.93 in - SE 20.7 mph - -  
6:00 PM 80.6 °F 83.2 °F 68.0 °F 65% 29.92 in 6.2 mi SE 20.7 mph - N/A   Unknown
7:00 PM 80 °F - 69 °F 60% 29.96 in - SE 17.3 mph - -  
7:00 PM 80.6 °F 83.2 °F 68.0 °F 65% 29.95 in 6.2 mi SE 17.3 mph - N/A   Partly Cloudy
7:30 PM 78.8 °F - 68.0 °F 69% 29.95 in 6.2 mi SE 18.4 mph - N/A   Partly Cloudy
8:00 PM 78.8 °F - 66.2 °F 65% 29.95 in 6.2 mi SE 17.3 mph - N/A   Partly Cloudy
8:30 PM 78.8 °F - 68.0 °F 69% 29.95 in 6.2 mi SSE 15.0 mph - N/A   Partly Cloudy
9:00 PM 78 °F - 69 °F 66% 29.97 in - SSE 12.7 mph - -  
9:00 PM 78.8 °F - 68.0 °F 69% 29.95 in 6.2 mi SSE 12.7 mph - N/A   Partly Cloudy
9:30 PM 78.8 °F - 68.0 °F 69% 29.98 in 6.2 mi SSE 12.7 mph - N/A   Partly Cloudy
10:00 PM 77 °F - 69 °F 70% 29.99 in - SSE 10.4 mph - -  
10:00 PM 77.0 °F - 69.8 °F 78% 29.98 in 6.2 mi SSE 10.4 mph - N/A   Partly Cloudy
10:30 PM 77.0 °F - 68.0 °F 74% 29.98 in 6.2 mi South 12.7 mph - N/A   Partly Cloudy
11:00 PM 77.0 °F - 68.0 °F 74% 29.98 in 6.2 mi South 11.5 mph - N/A   Partly Cloudy
11:30 PM 77.0 °F - 68.0 °F 74% 29.98 in 6.2 mi South 9.2 mph - N/A   Partly Cloudy